Regional Weather Roundup
Issued by NWS Midland/Odessa, TX

Skip options and go directly to product.
Home | Oldest Version | Previous Version | Current Version | All | Text Only | Save Text | Print | Product List | Glossary Off

Skip product version selection by date and time.   

411
ASUS44 KMAF 030410
RWRMAF
MIDLAND AREA WEATHER ROUNDUP
NATIONAL WEATHER SERVICE MIDLAND TX
1100 PM CDT SUN AUG 02 2015

...IN SOUTHWEST TEXAS AND SOUTHEAST NEW MEXICO...

CITY           SKY/WX    TMP DP  RH WIND       PRES   REMARKS
ALPINE         PTCLDY    80  54  41 SE13      30.10R
ANDREWS        LGT RAIN  72  66  81 SE8       30.00S
ARTESIA        MOCLDY    86  57  37 W9        29.97R
BIG SPRING     CLOUDY    78  64  62 E15       29.97F
CARLSBAD       CLOUDY    86  59  39 MISG      29.94R
DRYDEN           N/A     89  60  37 SE10      29.92R
FORT STOCKTON  CLEAR     86  55  34 SE15G23   29.96R
GUAD PASS      CLOUDY    80  54  40 S5        30.13R
HOBBS            N/A    N/A N/A N/A MISG        N/A
MARFA          PTCLDY    72  57  60 NE6       30.09R
MIDLAND AIRPK  PTCLDY    84  61  44 E10       29.97R
MIDLAND INTL   MOCLDY    84  62  47 E12       29.97R
ODESSA         MOCLDY    84  60  44 N8        30.00R
PECOS          PTCLDY    87  57  35 SE10      29.91R
PRESIDIO       MOCLDY    92  55  27 MISG      29.90R
SEMINOLE       CLOUDY    79  61  53 SE7       30.01R
SNYDER         DRIZZLE   81  65  57 S7        29.95S
WINK           MOCLDY    80  64  58 E12       29.94R
$$
...OTHER STATIONS IN TEXAS...

CITY           SKY/WX    TMP DP  RH WIND       PRES   REMARKS
ABILENE        PTCLDY    81  62  52 SE7       29.93R
AMARILLO       TSTM      72  66  81 NE12      30.03R
AUSTIN         CLEAR     85  62  46 SE7       29.87R
BROWNSVILLE    CLEAR     80  75  84 SE6       29.88R
CORPUS CHRISTI CLEAR     80  73  79 S5        29.87R
DALLAS FTW     PTCLDY    85  57  38 SE7       29.88R
DEL RIO        CLEAR     89  59  36 E8        29.86R
EL PASO        TSTM      76  64  66 W14       30.04R
HOUSTON INT    CLEAR     84  67  56 S5        29.88R
LUBBOCK        MOCLDY    79  62  56 S10       29.98R
SAN ANGELO     CLEAR     86  59  39 SE6       29.92R
SAN ANTONIO    CLEAR     84  61  45 SE7       29.88R
WACO           CLEAR     81  59  47 E5        29.88R
WICHITA FALLS  NOT AVBL
$$
...OTHER LOCATIONS IN NEW MEXICO...

CITY           SKY/WX    TMP DP  RH WIND       PRES   REMARKS
ALAMAGORDO     PTCLDY    77  57  50 SW6       30.02R
ALBUQUERQUE    MOCLDY    73  55  53 CALM      30.13R
CANNON AFB     MOCLDY    71  61  71 S6        30.04R
CLOVIS         CLOUDY    70  59  68 N13       30.06R
HOLLOMAN AFB   PTCLDY    81  56  42 SW8       30.00R
ROSWELL        MOCLDY    82  56  40 E9        29.98R
RUIDOSO          N/A    N/A N/A N/A MISG        N/A
SANTA FE       PTCLDY    65  54  67 N12       30.20R
TRUTH OR CONSE PTCLDY    74  60  61 W10       30.07R
TUCUMCARI      CLOUDY    70  63  78 CALM      30.05S
$$

USA.gov is the U.S. government's official web portal to all federal, state and local government web resources and services.